Location: G�migny
(47.9646°N, 1.6950°E)
Time: 06:54:52
(UTC+00:00)

NOAA 11 - Pass Details

Date: 23 October 2019
Orbit: 833 x 849 km, 98.4° (Epoch: 21 November)

Event Time Altitude Azimuth Distance (km) Brightness Sun altitude
Rises 18:36:49 0° 163° (SSE) 3,379 7.1 -18.4°
Reaches altitude 10° 18:39:10 10° 163° (SSE) 2,447 6.4 -18.8°
Maximum altitude 18:44:36 89° 76° (ENE) 843 4.1 -19.7°
Drops below altitude 10° 18:50:04 10° 346° (NNW) 2,456 6.8 -20.6°
Sets 18:52:26 0° 347° (NNW) 3,394 7.6 -21.0°
